EWG5DA LDSP-EDDL

Flight info

Callsign EWG5DA
Flight time 1h 39m
Altitude 34000
Route ZDA DCT PEVAL DCT MOBDO DCT SOTOV DCT KPT L608 TEDGO/N0431F350 DCT HAREM DCT LOHRE/N0431F340 Z850 ARPEG/N0381F240 Z850 ADEMI T854 DOMUX DOMUX1A
Aircraft A320/M-SDE3FGHIRWY/LB1

Departure

Time 2026-05-04 13:31
Airport Split Saint Jerome Airport (LDSP)

Arrival

Time 2026-05-04 15:11
Airport Düsseldorf Airport (EDDL)
Time Latitude Longitude Altitude Speed Heading
2026-05-04 12:57 43.53582 16.29697 68 ft 0 kts 99°
2026-05-04 13:26 43.53582 16.29698 68 ft 1 kts 101°
2026-05-04 13:27 43.53571 16.29701 62 ft 3 kts 184°
2026-05-04 13:27 43.53556 16.29666 63 ft 6 kts 282°
2026-05-04 13:27 43.53605 16.29603 68 ft 12 kts 322°
2026-05-04 13:27 43.53673 16.29639 69 ft 12 kts 52°
2026-05-04 13:28 43.53720 16.29723 68 ft 11 kts 52°
2026-05-04 13:28 43.53763 16.29800 65 ft 10 kts 53°
2026-05-04 13:28 43.53828 16.29919 68 ft 17 kts 52°
2026-05-04 13:28 43.53900 16.30042 65 ft 16 kts 41°
2026-05-04 13:29 43.54003 16.30095 68 ft 18 kts 17°
2026-05-04 13:29 43.54112 16.30189 74 ft 18 kts 50°
2026-05-04 13:29 43.54206 16.30355 59 ft 29 kts 52°
2026-05-04 13:29 43.54338 16.30593 56 ft 33 kts 52°
2026-05-04 13:30 43.54477 16.30841 58 ft 33 kts 52°
2026-05-04 13:30 43.54552 16.31027 62 ft 12 kts 83°
2026-05-04 13:30 43.54586 16.31028 57 ft 6 kts 259°
2026-05-04 13:30 43.54530 16.30933 61 ft 36 kts 232°
2026-05-04 13:31 43.54226 16.30390 62 ft 103 kts 232°
2026-05-04 13:31 43.53680 16.29413 158 ft 145 kts 232°
2026-05-04 13:31 43.53054 16.28371 876 ft 141 kts 228°
2026-05-04 13:31 43.52394 16.27311 1437 ft 147 kts 229°
2026-05-04 13:32 43.51742 16.26222 1996 ft 147 kts 229°
2026-05-04 13:32 43.51088 16.25121 2508 ft 149 kts 229°
2026-05-04 13:32 43.50432 16.24023 3017 ft 149 kts 230°
2026-05-04 13:32 43.49776 16.22923 3409 ft 155 kts 230°
2026-05-04 13:33 43.49034 16.21679 3537 ft 183 kts 230°
2026-05-04 13:33 43.48168 16.20226 3744 ft 208 kts 231°
2026-05-04 13:33 43.47201 16.18588 3996 ft 233 kts 234°
2026-05-04 13:33 43.46490 16.16480 4337 ft 256 kts 259°
2026-05-04 13:34 43.46528 16.13990 4976 ft 267 kts 285°
2026-05-04 13:34 43.47381 16.11720 5746 ft 272 kts 312°
2026-05-04 13:34 43.48826 16.10028 6603 ft 275 kts 323°
2026-05-04 13:34 43.50365 16.08433 7390 ft 279 kts 323°
2026-05-04 13:35 43.51911 16.06845 8145 ft 284 kts 323°
2026-05-04 13:35 43.55126 16.03530 9703 ft 293 kts 323°
2026-05-04 13:35 43.56760 16.01808 10439 ft 299 kts 321°
2026-05-04 13:36 43.58414 15.99898 10703 ft 322 kts 319°
2026-05-04 13:36 43.60145 15.97775 10949 ft 343 kts 317°
2026-05-04 13:36 43.61924 15.95540 11580 ft 348 kts 317°
2026-05-04 13:36 43.63708 15.93300 12416 ft 348 kts 317°
2026-05-04 13:37 43.65510 15.91051 13153 ft 351 kts 317°
2026-05-04 13:37 43.67341 15.88778 13820 ft 356 kts 317°
2026-05-04 13:37 43.69171 15.86517 14431 ft 360 kts 317°
2026-05-04 13:37 43.70435 15.84961 14873 ft 361 kts 318°
2026-05-04 13:38 43.72923 15.81905 15768 ft 362 kts 318°
2026-05-04 13:38 43.74810 15.79588 16436 ft 364 kts 317°
2026-05-04 13:38 43.76710 15.77254 17078 ft 366 kts 317°
2026-05-04 13:38 43.78620 15.74901 17721 ft 368 kts 318°
2026-05-04 13:39 43.80538 15.72536 18360 ft 371 kts 317°
2026-05-04 13:39 43.82467 15.70152 18919 ft 373 kts 317°
2026-05-04 13:39 43.84401 15.67755 19506 ft 374 kts 317°
2026-05-04 13:39 43.86314 15.65377 20055 ft 375 kts 317°
2026-05-04 13:40 43.88257 15.62960 20655 ft 376 kts 317°
2026-05-04 13:40 43.90213 15.60531 21187 ft 379 kts 317°
2026-05-04 13:40 43.92184 15.58086 21744 ft 381 kts 317°
2026-05-04 13:40 43.94163 15.55628 22325 ft 382 kts 317°
2026-05-04 13:41 43.96149 15.53158 22885 ft 385 kts 317°
2026-05-04 13:41 43.98145 15.50671 23425 ft 387 kts 317°
2026-05-04 13:41 44.00152 15.48167 23912 ft 389 kts 317°
2026-05-04 13:42 44.04197 15.43123 24774 ft 393 kts 317°
2026-05-04 13:42 44.06203 15.40609 25172 ft 394 kts 317°
2026-05-04 13:42 44.08244 15.38046 25578 ft 396 kts 317°
2026-05-04 13:42 44.10192 15.35334 25969 ft 398 kts 309°
2026-05-04 13:43 44.11962 15.32364 26344 ft 400 kts 309°
2026-05-04 13:43 44.13736 15.29374 26728 ft 401 kts 309°
2026-05-04 13:43 44.15516 15.26373 27107 ft 403 kts 309°
2026-05-04 13:43 44.17305 15.23356 27474 ft 405 kts 309°
2026-05-04 13:44 44.18497 15.21347 27689 ft 407 kts 309°
2026-05-04 13:44 44.20893 15.17314 28136 ft 410 kts 309°
2026-05-04 13:44 44.22715 15.14247 28497 ft 411 kts 309°
2026-05-04 13:44 44.24542 15.11165 28832 ft 413 kts 309°
2026-05-04 13:45 44.26373 15.08063 29169 ft 415 kts 308°
2026-05-04 13:45 44.28207 15.04947 29494 ft 416 kts 308°
2026-05-04 13:45 44.30046 15.01819 29830 ft 418 kts 308°
2026-05-04 13:45 44.31892 14.98679 30154 ft 419 kts 308°
2026-05-04 13:46 44.33118 14.96595 30329 ft 420 kts 308°
2026-05-04 13:46 44.34977 14.93434 30580 ft 422 kts 308°
2026-05-04 13:46 44.37450 14.89226 30895 ft 424 kts 308°
2026-05-04 13:46 44.39326 14.86029 31119 ft 426 kts 308°
2026-05-04 13:47 44.41206 14.82813 31358 ft 427 kts 308°
2026-05-04 13:47 44.42448 14.80682 31572 ft 427 kts 308°
2026-05-04 13:47 44.44324 14.77462 31881 ft 427 kts 308°
2026-05-04 13:47 44.46200 14.74248 32192 ft 426 kts 308°
2026-05-04 13:48 44.48076 14.71037 32508 ft 426 kts 308°
2026-05-04 13:48 44.49950 14.67828 32814 ft 425 kts 308°
2026-05-04 13:48 44.52425 14.63580 33233 ft 425 kts 308°
2026-05-04 13:48 44.53685 14.61413 33443 ft 424 kts 308°
2026-05-04 13:49 44.55549 14.58203 33749 ft 424 kts 308°
2026-05-04 13:49 44.57380 14.55037 34038 ft 424 kts 308°
2026-05-04 13:49 44.59235 14.51825 34318 ft 423 kts 308°
2026-05-04 13:49 44.61086 14.48618 34594 ft 422 kts 308°
2026-05-04 13:50 44.62935 14.45418 34840 ft 422 kts 308°
2026-05-04 13:50 44.64786 14.42210 35052 ft 423 kts 308°
2026-05-04 13:50 44.66635 14.39001 35294 ft 422 kts 308°
2026-05-04 13:50 44.68481 14.35799 35551 ft 421 kts 308°
2026-05-04 13:51 44.70322 14.32604 35793 ft 420 kts 308°
2026-05-04 13:51 44.72132 14.29457 36019 ft 419 kts 308°
2026-05-04 13:51 44.75776 14.23101 36118 ft 414 kts 307°
2026-05-04 13:52 44.81184 14.13644 36119 ft 414 kts 307°
2026-05-04 13:53 44.84797 14.07315 36120 ft 415 kts 307°
2026-05-04 13:53 44.88378 14.01013 36138 ft 415 kts 307°
2026-05-04 13:54 44.93776 13.91474 36142 ft 415 kts 307°
2026-05-04 13:55 44.99188 13.81929 36140 ft 415 kts 307°
2026-05-04 13:55 45.04567 13.72386 36109 ft 416 kts 306°
2026-05-04 13:56 45.08161 13.65970 36113 ft 416 kts 306°
2026-05-04 13:57 45.13560 13.56343 36107 ft 416 kts 306°
2026-05-04 13:58 45.20730 13.43517 36108 ft 417 kts 306°
2026-05-04 13:58 45.26118 13.33823 36100 ft 417 kts 306°
2026-05-04 13:59 45.29705 13.27349 36099 ft 417 kts 306°
2026-05-04 14:00 45.35931 13.18743 36092 ft 420 kts 316°
2026-05-04 14:00 45.42503 13.10480 36089 ft 420 kts 316°
2026-05-04 14:01 45.46879 13.04954 36086 ft 420 kts 316°
2026-05-04 14:02 45.53403 12.96678 36079 ft 421 kts 316°
2026-05-04 14:02 45.57774 12.91126 36076 ft 421 kts 316°
2026-05-04 14:03 45.62152 12.85566 36067 ft 421 kts 315°
2026-05-04 14:03 45.66526 12.79994 36074 ft 421 kts 316°
2026-05-04 14:04 45.73054 12.71656 36063 ft 421 kts 316°
2026-05-04 14:04 45.77419 12.66058 36079 ft 421 kts 315°
2026-05-04 14:05 45.83960 12.57629 36082 ft 422 kts 315°
2026-05-04 14:06 45.88324 12.51999 36091 ft 422 kts 315°
2026-05-04 14:06 45.92663 12.46395 36091 ft 422 kts 315°
2026-05-04 14:07 45.97033 12.40742 36089 ft 423 kts 315°
2026-05-04 14:07 46.01403 12.35081 36087 ft 423 kts 315°
2026-05-04 14:08 46.05771 12.29401 36076 ft 423 kts 315°
2026-05-04 14:08 46.10108 12.23745 36074 ft 423 kts 315°
2026-05-04 14:09 46.16654 12.15189 36062 ft 423 kts 315°
2026-05-04 14:10 46.23196 12.06611 36073 ft 423 kts 315°
2026-05-04 14:10 46.27520 12.00913 36079 ft 424 kts 315°
2026-05-04 14:11 46.31873 11.95169 36070 ft 424 kts 314°
2026-05-04 14:11 46.38403 11.86525 36076 ft 424 kts 315°
2026-05-04 14:12 46.42766 11.80775 36066 ft 424 kts 316°
2026-05-04 14:13 46.49681 11.72705 36048 ft 426 kts 320°
2026-05-04 14:13 46.54363 11.67515 36038 ft 426 kts 319°
2026-05-04 14:14 46.59026 11.62208 36039 ft 426 kts 319°
2026-05-04 14:14 46.65972 11.54162 36033 ft 425 kts 319°
2026-05-04 14:15 46.75201 11.43461 36042 ft 425 kts 318°
2026-05-04 14:16 46.82144 11.35386 36037 ft 426 kts 318°
2026-05-04 14:17 46.89090 11.27276 36035 ft 426 kts 318°
2026-05-04 14:18 46.96025 11.19195 36029 ft 427 kts 320°
2026-05-04 14:19 47.05727 11.09050 36022 ft 429 kts 322°
2026-05-04 14:19 47.10591 11.03976 36010 ft 429 kts 321°
2026-05-04 14:20 47.15394 10.98877 36007 ft 429 kts 321°
2026-05-04 14:20 47.20223 10.93708 36007 ft 429 kts 321°
2026-05-04 14:21 47.27469 10.85958 36005 ft 429 kts 321°
2026-05-04 14:21 47.32305 10.80786 36019 ft 429 kts 321°
2026-05-04 14:22 47.37102 10.75639 36018 ft 429 kts 321°
2026-05-04 14:22 47.41928 10.70442 36009 ft 429 kts 321°
2026-05-04 14:23 47.49160 10.62644 36013 ft 429 kts 321°
2026-05-04 14:24 47.53947 10.57477 36017 ft 429 kts 320°
2026-05-04 14:24 47.58758 10.52256 36009 ft 429 kts 320°
2026-05-04 14:25 47.63562 10.47018 36018 ft 429 kts 320°
2026-05-04 14:25 47.70774 10.39149 35997 ft 429 kts 320°
2026-05-04 14:26 47.75536 10.33910 35996 ft 428 kts 319°
2026-05-04 14:26 47.80178 10.28375 35994 ft 427 kts 317°
2026-05-04 14:27 47.84733 10.22697 35992 ft 427 kts 317°
2026-05-04 14:27 47.89301 10.17047 36002 ft 427 kts 317°
2026-05-04 14:28 47.93863 10.11449 35992 ft 428 kts 317°
2026-05-04 14:28 47.98463 10.05821 35987 ft 428 kts 317°
2026-05-04 14:29 48.07659 9.94510 35989 ft 428 kts 317°
2026-05-04 14:30 48.12243 9.88837 35986 ft 428 kts 317°
2026-05-04 14:31 48.19078 9.80341 36000 ft 428 kts 316°
2026-05-04 14:32 48.28232 9.68938 35998 ft 427 kts 316°
2026-05-04 14:32 48.32772 9.63272 35993 ft 427 kts 316°
2026-05-04 14:33 48.37323 9.57539 35991 ft 427 kts 316°
2026-05-04 14:33 48.41833 9.51742 35988 ft 426 kts 315°
2026-05-04 14:34 48.46342 9.45929 35996 ft 426 kts 315°
2026-05-04 14:34 48.50857 9.40125 35989 ft 426 kts 315°
2026-05-04 14:35 48.55335 9.34356 35990 ft 426 kts 315°
2026-05-04 14:35 48.60205 9.29206 35994 ft 434 kts 332°
2026-05-04 14:36 48.66071 9.26904 35983 ft 443 kts 354°
2026-05-04 14:36 48.72262 9.27514 35980 ft 447 kts
2026-05-04 14:37 48.78462 9.28467 35976 ft 448 kts
2026-05-04 14:37 48.84665 9.29418 35976 ft 448 kts
2026-05-04 14:38 48.90878 9.30374 35982 ft 449 kts
2026-05-04 14:38 48.97086 9.31325 35987 ft 449 kts
2026-05-04 14:39 49.03260 9.32280 35991 ft 449 kts
2026-05-04 14:39 49.09469 9.33243 35991 ft 449 kts
2026-05-04 14:40 49.18778 9.34687 35997 ft 449 kts
2026-05-04 14:40 49.24993 9.35646 35995 ft 449 kts
2026-05-04 14:41 49.31211 9.36616 36004 ft 449 kts
2026-05-04 14:42 49.43630 9.38575 35990 ft 451 kts
2026-05-04 14:42 49.49878 9.39548 35990 ft 451 kts
2026-05-04 14:43 49.56131 9.40531 35986 ft 452 kts
2026-05-04 14:43 49.62389 9.41533 35995 ft 452 kts
2026-05-04 14:44 49.68651 9.42519 35995 ft 452 kts
2026-05-04 14:44 49.74871 9.43510 36000 ft 453 kts
2026-05-04 14:45 49.81140 9.44517 36006 ft 453 kts
2026-05-04 14:45 49.87404 9.45530 36002 ft 453 kts
2026-05-04 14:46 49.93669 9.46541 35995 ft 452 kts
2026-05-04 14:46 49.99934 9.47498 35995 ft 451 kts 358°
2026-05-04 14:47 50.06020 9.46448 36003 ft 439 kts 339°
2026-05-04 14:47 50.11455 9.42539 35995 ft 425 kts 319°
2026-05-04 14:48 50.16046 9.36827 35991 ft 422 kts 315°
2026-05-04 14:48 50.20608 9.31047 35991 ft 423 kts 315°
2026-05-04 14:49 50.25178 9.25257 35988 ft 423 kts 315°
2026-05-04 14:49 50.29713 9.19485 36008 ft 424 kts 315°
2026-05-04 14:50 50.32010 9.16546 35812 ft 428 kts 315°
2026-05-04 14:50 50.34311 9.13602 35559 ft 427 kts 315°
2026-05-04 14:50 50.36607 9.10665 35305 ft 425 kts 315°
2026-05-04 14:50 50.38891 9.07745 35055 ft 423 kts 315°
2026-05-04 14:51 50.41165 9.04837 34808 ft 421 kts 315°
2026-05-04 14:51 50.43430 9.01938 34555 ft 419 kts 315°
2026-05-04 14:51 50.45681 8.99050 34317 ft 417 kts 315°
2026-05-04 14:51 50.47918 8.96172 34077 ft 415 kts 315°
2026-05-04 14:52 50.50110 8.93345 33819 ft 413 kts 314°
2026-05-04 14:52 50.52326 8.90481 33542 ft 411 kts 315°
2026-05-04 14:52 50.54545 8.87665 33285 ft 410 kts 316°
2026-05-04 14:52 50.56801 8.84920 33012 ft 409 kts 317°
2026-05-04 14:53 50.59069 8.82236 32743 ft 407 kts 317°
2026-05-04 14:53 50.61337 8.79576 32477 ft 406 kts 317°
2026-05-04 14:53 50.63596 8.76914 32215 ft 405 kts 317°
2026-05-04 14:53 50.65838 8.74244 31951 ft 403 kts 317°
2026-05-04 14:54 50.68039 8.71521 31502 ft 401 kts 312°
2026-05-04 14:54 50.70088 8.68465 30418 ft 411 kts 310°
2026-05-04 14:54 50.72106 8.65314 29684 ft 414 kts 309°
2026-05-04 14:54 50.74130 8.62090 28984 ft 414 kts 309°
2026-05-04 14:55 50.76150 8.58856 28299 ft 414 kts 309°
2026-05-04 14:55 50.78174 8.55628 27630 ft 414 kts 310°
2026-05-04 14:55 50.80204 8.52409 26982 ft 413 kts 310°
2026-05-04 14:55 50.82235 8.49201 26338 ft 412 kts 310°
2026-05-04 14:56 50.84262 8.45994 25719 ft 412 kts 310°
2026-05-04 14:56 50.86286 8.42787 25119 ft 411 kts 310°
2026-05-04 14:56 50.88278 8.39627 24535 ft 411 kts 310°
2026-05-04 14:56 50.90294 8.36425 23950 ft 410 kts 310°
2026-05-04 14:57 50.92306 8.33229 23340 ft 409 kts 310°
2026-05-04 14:57 50.94315 8.30030 22652 ft 409 kts 311°
2026-05-04 14:57 50.96317 8.26833 21981 ft 409 kts 311°
2026-05-04 14:57 50.98320 8.23632 21339 ft 408 kts 311°
2026-05-04 14:58 51.00323 8.20434 20698 ft 408 kts 311°
2026-05-04 14:58 51.02259 8.17231 20080 ft 406 kts 307°
2026-05-04 14:58 51.03940 8.13642 19360 ft 406 kts 300°
2026-05-04 14:58 51.05369 8.09773 18647 ft 406 kts 295°
2026-05-04 14:59 51.06659 8.05780 17901 ft 407 kts 294°
2026-05-04 14:59 51.07920 8.01765 17321 ft 403 kts 294°
2026-05-04 14:59 51.10520 7.93980 16286 ft 394 kts 296°
2026-05-04 15:00 51.11872 7.90209 15780 ft 390 kts 297°
2026-05-04 15:00 51.13232 7.86501 15283 ft 386 kts 298°
2026-05-04 15:00 51.14587 7.82830 14792 ft 382 kts 297°
2026-05-04 15:01 51.17222 7.75631 13835 ft 375 kts 297°
2026-05-04 15:01 51.18522 7.72062 13311 ft 371 kts 297°
2026-05-04 15:01 51.19804 7.68520 12784 ft 367 kts 297°
2026-05-04 15:01 51.21070 7.65012 12265 ft 363 kts 297°
2026-05-04 15:02 51.22319 7.61536 11703 ft 361 kts 297°
2026-05-04 15:02 51.23565 7.58064 11076 ft 360 kts 297°
2026-05-04 15:02 51.24807 7.54597 10466 ft 360 kts 297°
2026-05-04 15:02 51.26046 7.51130 9860 ft 359 kts 297°
2026-05-04 15:03 51.27265 7.47724 9209 ft 357 kts 298°
2026-05-04 15:03 51.28494 7.44288 8559 ft 355 kts 298°
2026-05-04 15:03 51.29714 7.40873 7920 ft 353 kts 298°
2026-05-04 15:03 51.30930 7.37482 7293 ft 350 kts 298°
2026-05-04 15:04 51.32138 7.34122 6676 ft 347 kts 298°
2026-05-04 15:04 51.33336 7.30783 6052 ft 345 kts 298°
2026-05-04 15:04 51.34525 7.27462 5420 ft 343 kts 298°
2026-05-04 15:04 51.35698 7.24183 4908 ft 337 kts 298°
2026-05-04 15:05 51.36849 7.20967 4385 ft 331 kts 298°
2026-05-04 15:05 51.37959 7.17859 4084 ft 319 kts 298°
2026-05-04 15:05 51.39032 7.14839 3828 ft 304 kts 298°
2026-05-04 15:05 51.40057 7.11948 3576 ft 293 kts 298°
2026-05-04 15:06 51.41043 7.09161 3329 ft 282 kts 297°
2026-05-04 15:06 51.41605 7.06275 3090 ft 268 kts 270°
2026-05-04 15:06 51.41259 7.03472 2968 ft 248 kts 242°
2026-05-04 15:07 51.39402 6.99313 2987 ft 213 kts 232°
2026-05-04 15:07 51.38540 6.97487 2989 ft 198 kts 231°
2026-05-04 15:07 51.37747 6.95810 3005 ft 183 kts 231°
2026-05-04 15:07 51.36981 6.94202 2684 ft 183 kts 232°
2026-05-04 15:08 51.36214 6.92585 2392 ft 181 kts 231°
2026-05-04 15:08 51.35462 6.90996 2130 ft 177 kts 231°
2026-05-04 15:08 51.34735 6.89462 1884 ft 168 kts 231°
2026-05-04 15:08 51.34052 6.88021 1677 ft 155 kts 232°
2026-05-04 15:09 51.33434 6.86717 1486 ft 144 kts 230°
2026-05-04 15:09 51.32837 6.85456 1291 ft 141 kts 231°
2026-05-04 15:09 51.32252 6.84228 1129 ft 141 kts 230°
2026-05-04 15:10 51.31070 6.81741 723 ft 140 kts 231°
2026-05-04 15:10 51.30482 6.80505 528 ft 139 kts 230°
2026-05-04 15:10 51.29318 6.78047 164 ft 139 kts 230°
2026-05-04 15:11 51.28784 6.76928 128 ft 106 kts 232°
2026-05-04 15:11 51.28465 6.76256 129 ft 38 kts 232°
2026-05-04 15:11 51.28339 6.76060 126 ft 23 kts 202°
2026-05-04 15:11 51.28203 6.76078 125 ft 18 kts 139°
2026-05-04 15:12 51.28238 6.76248 128 ft 18 kts 53°
2026-05-04 15:12 51.28312 6.76405 125 ft 18 kts 52°
2026-05-04 15:12 51.28385 6.76555 124 ft 16 kts 52°
2026-05-04 15:12 51.28402 6.76682 123 ft 12 kts 131°
2026-05-04 15:13 51.28337 6.76769 125 ft 12 kts 141°
2026-05-04 15:13 51.28271 6.76846 129 ft 12 kts 157°
2026-05-04 15:13 51.28182 6.76839 129 ft 14 kts 186°
2026-05-04 15:13 51.28090 6.76805 128 ft 12 kts 198°
2026-05-04 15:14 51.28055 6.76765 124 ft 5 kts 262°
2026-05-04 15:14 51.28058 6.76717 127 ft 3 kts 276°
2026-05-04 15:14 51.28059 6.76708 124 ft 0 kts 276°